date,time,SUV Intensity [MED/Hr],UV Index,Daily total [MED],Since Last [MED]
23/05/2023,00:02:06,0.000,0.0,0.0,0.0
23/05/2023,00:03:05,0.000,0.0,0.0,0.0
23/05/2023,00:04:06,0.001,0.0,0.0,0.0
23/05/2023,00:05:05,0.000,0.0,0.0,0.0
23/05/2023,00:06:05,0.000,0.0,0.0,0.0
23/05/2023,00:07:05,0.001,0.0,0.0,0.0
23/05/2023,00:08:06,0.000,0.0,0.0,0.0
23/05/2023,00:09:06,0.001,0.0,0.0,0.0
23/05/2023,00:10:05,0.000,0.0,0.0,0.0
23/05/2023,00:11:06,0.000,0.0,0.0,0.0
23/05/2023,00:12:05,0.000,0.0,0.0,0.0
23/05/2023,00:13:05,0.000,0.0,0.0,0.0
23/05/2023,00:14:05,0.000,0.0,0.0,0.0
23/05/2023,00:15:05,0.001,0.0,0.0,0.0
23/05/2023,00:16:05,0.000,0.0,0.0,0.0
23/05/2023,00:17:05,0.000,0.0,0.0,0.0
23/05/2023,00:18:05,0.000,0.0,0.0,0.0
23/05/2023,00:19:06,0.000,0.0,0.0,0.0
23/05/2023,00:20:05,0.000,0.0,0.0,0.0
23/05/2023,00:21:05,0.000,0.0,0.0,0.0
23/05/2023,00:22:05,0.000,0.0,0.0,0.0
23/05/2023,00:23:05,0.000,0.0,0.0,0.0
23/05/2023,00:24:05,0.001,0.0,0.0,0.0
23/05/2023,00:25:06,0.000,0.0,0.0,0.0
23/05/2023,00:26:06,0.000,0.0,0.0,0.0
23/05/2023,00:27:05,0.000,0.0,0.0,0.0
23/05/2023,00:28:05,0.001,0.0,0.0,0.0
23/05/2023,00:29:05,0.000,0.0,0.0,0.0
23/05/2023,00:30:05,0.000,0.0,0.0,0.0
23/05/2023,00:31:05,0.000,0.0,0.0,0.0
23/05/2023,00:32:06,-0.001,0.0,0.0,0.0
23/05/2023,00:33:05,0.000,0.0,0.0,0.0
23/05/2023,00:34:06,0.001,0.0,0.0,0.0
23/05/2023,00:35:05,-0.001,0.0,0.0,0.0
23/05/2023,00:36:05,0.000,0.0,0.0,0.0
23/05/2023,00:37:05,0.000,0.0,0.0,0.0
23/05/2023,00:38:05,0.001,0.0,0.0,0.0
23/05/2023,00:39:05,0.000,0.0,0.0,0.0
23/05/2023,00:40:06,-0.000,0.0,0.0,0.0
23/05/2023,00:41:06,0.001,0.0,0.0,0.0
23/05/2023,00:42:06,0.000,0.0,0.0,0.0
23/05/2023,00:43:06,-0.000,0.0,0.0,0.0
23/05/2023,00:44:05,-0.001,0.0,0.0,0.0
23/05/2023,00:45:06,0.001,0.0,0.0,0.0
23/05/2023,00:46:06,0.000,0.0,0.0,0.0
23/05/2023,00:47:05,0.000,0.0,0.0,0.0
23/05/2023,00:48:05,0.000,0.0,0.0,0.0
23/05/2023,00:49:05,-0.000,0.0,0.0,0.0
23/05/2023,00:50:06,0.000,0.0,0.0,0.0
23/05/2023,00:51:05,0.000,0.0,0.0,0.0
23/05/2023,00:52:06,0.000,0.0,0.0,0.0
23/05/2023,00:53:05,0.001,0.0,0.0,0.0
23/05/2023,00:54:05,0.000,0.0,0.0,0.0
23/05/2023,00:55:06,0.000,0.0,0.0,0.0
23/05/2023,00:56:05,0.000,0.0,0.0,0.0
23/05/2023,00:57:06,0.001,0.0,0.0,0.0
23/05/2023,00:58:05,0.000,0.0,0.0,0.0
23/05/2023,00:59:05,0.000,0.0,0.0,0.0
23/05/2023,01:00:05,0.000,0.0,0.0,0.0
23/05/2023,01:01:05,0.000,0.0,0.0,0.0
23/05/2023,01:02:06,0.000,0.0,0.0,0.0
23/05/2023,01:03:06,-0.001,0.0,0.0,0.0
23/05/2023,01:04:06,0.000,0.0,0.0,0.0
23/05/2023,01:05:05,0.000,0.0,0.0,0.0
23/05/2023,01:06:05,-0.001,0.0,0.0,0.0
23/05/2023,01:07:05,0.000,0.0,0.0,0.0
23/05/2023,01:08:05,0.000,0.0,0.0,0.0
23/05/2023,01:09:05,0.000,0.0,0.0,0.0
23/05/2023,01:10:05,-0.000,0.0,0.0,0.0
23/05/2023,01:11:06,0.000,0.0,0.0,0.0
23/05/2023,01:12:06,0.000,0.0,0.0,0.0
23/05/2023,01:13:06,0.001,0.0,0.0,0.0
23/05/2023,01:14:05,0.001,0.0,0.0,0.0
23/05/2023,01:15:06,0.000,0.0,0.0,0.0
23/05/2023,01:16:05,0.000,0.0,0.0,0.0
23/05/2023,01:17:06,0.000,0.0,0.0,0.0
23/05/2023,01:18:06,0.000,0.0,0.0,0.0
23/05/2023,01:19:06,0.000,0.0,0.0,0.0
23/05/2023,01:20:07,-0.001,0.0,0.0,0.0
23/05/2023,01:21:06,0.001,0.0,0.0,0.0
23/05/2023,01:22:06,0.000,0.0,0.0,0.0
23/05/2023,01:23:05,0.000,0.0,0.0,0.0
23/05/2023,01:24:05,0.001,0.0,0.0,0.0
23/05/2023,01:25:05,0.000,0.0,0.0,0.0
23/05/2023,01:26:05,-0.000,0.0,0.0,0.0
23/05/2023,01:27:05,0.001,0.0,0.0,0.0
23/05/2023,01:28:06,0.000,0.0,0.0,0.0
23/05/2023,01:29:05,0.001,0.0,0.0,0.0
23/05/2023,01:30:05,0.000,0.0,0.0,0.0
23/05/2023,01:31:06,-0.001,0.0,0.0,0.0
23/05/2023,01:32:06,-0.000,0.0,0.0,0.0
23/05/2023,01:33:07,0.001,0.0,0.0,0.0
23/05/2023,01:34:06,0.001,0.0,0.0,0.0
23/05/2023,01:35:05,0.000,0.0,0.0,0.0
23/05/2023,01:36:06,0.001,0.0,0.0,0.0
23/05/2023,01:37:05,0.000,0.0,0.0,0.0
23/05/2023,01:38:06,0.000,0.0,0.0,0.0
23/05/2023,01:39:06,0.000,0.0,0.0,0.0
23/05/2023,01:40:06,0.000,0.0,0.0,0.0
23/05/2023,01:41:06,-0.000,0.0,0.0,0.0
23/05/2023,01:42:06,0.000,0.0,0.0,0.0
23/05/2023,01:43:05,0.000,0.0,0.0,0.0
23/05/2023,01:44:05,0.001,0.0,0.0,0.0
23/05/2023,01:45:06,0.000,0.0,0.0,0.0
23/05/2023,01:46:06,-0.001,0.0,0.0,0.0
23/05/2023,01:47:05,0.001,0.0,0.0,0.0
23/05/2023,01:48:05,0.000,0.0,0.0,0.0
23/05/2023,01:49:05,0.000,0.0,0.0,0.0
23/05/2023,01:50:06,-0.001,0.0,0.0,0.0
23/05/2023,01:51:06,0.000,0.0,0.0,0.0
23/05/2023,01:52:06,0.000,0.0,0.0,0.0
23/05/2023,01:53:06,0.000,0.0,0.0,0.0
23/05/2023,01:54:06,0.001,0.0,0.0,0.0
23/05/2023,01:55:05,-0.001,0.0,0.0,0.0
23/05/2023,01:56:05,0.000,0.0,0.0,0.0
23/05/2023,01:57:05,0.001,0.0,0.0,0.0
23/05/2023,01:58:05,0.000,0.0,0.0,0.0
23/05/2023,01:59:04,0.000,0.0,0.0,0.0
23/05/2023,02:00:28,0.000,0.0,0.0,0.0
23/05/2023,02:02:05,0.000,0.0,0.0,0.0
23/05/2023,02:03:06,-0.000,0.0,0.0,0.0
23/05/2023,02:04:06,0.000,0.0,0.0,0.0
23/05/2023,02:05:05,0.001,0.0,0.0,0.0
23/05/2023,02:06:06,0.000,0.0,0.0,0.0
23/05/2023,02:07:05,0.001,0.0,0.0,0.0
23/05/2023,02:08:06,0.000,0.0,0.0,0.0
23/05/2023,02:09:06,-0.001,0.0,0.0,0.0
23/05/2023,02:10:05,0.001,0.0,0.0,0.0
23/05/2023,02:11:05,0.002,0.0,0.0,0.0
23/05/2023,02:12:06,0.001,0.0,0.0,0.0
23/05/2023,02:13:06,0.001,0.0,0.0,0.0
23/05/2023,02:14:06,0.001,0.0,0.0,0.0
23/05/2023,02:15:06,0.001,0.0,0.0,0.0
23/05/2023,02:16:06,0.000,0.0,0.0,0.0
23/05/2023,02:17:06,0.000,0.0,0.0,0.0
23/05/2023,02:18:06,0.001,0.0,0.0,0.0
23/05/2023,02:19:05,0.000,0.0,0.0,0.0
23/05/2023,02:20:06,0.000,0.0,0.0,0.0
23/05/2023,02:21:05,0.000,0.0,0.0,0.0
23/05/2023,02:22:05,0.001,0.0,0.0,0.0
23/05/2023,02:23:06,0.001,0.0,0.0,0.0
23/05/2023,02:24:06,-0.000,0.0,0.0,0.0
23/05/2023,02:25:05,0.000,0.0,0.0,0.0
23/05/2023,02:26:06,0.001,0.0,0.0,0.0
23/05/2023,02:27:05,0.001,0.0,0.0,0.0
23/05/2023,02:28:06,0.000,0.0,0.0,0.0
23/05/2023,02:29:06,0.001,0.0,0.0,0.0
23/05/2023,02:30:06,0.002,0.0,0.0,0.0
23/05/2023,02:31:05,0.000,0.0,0.0,0.0
23/05/2023,02:32:06,0.001,0.0,0.0,0.0
23/05/2023,02:33:06,0.001,0.0,0.0,0.0
23/05/2023,02:34:06,0.001,0.0,0.0,0.0
23/05/2023,02:35:05,0.001,0.0,0.0,0.0
23/05/2023,02:36:06,0.001,0.0,0.0,0.0
23/05/2023,02:37:06,0.002,0.0,0.0,0.0
23/05/2023,02:38:06,-0.000,0.0,0.0,0.0
23/05/2023,02:39:06,0.001,0.0,0.0,0.0
23/05/2023,02:40:06,0.001,0.0,0.0,0.0
23/05/2023,02:41:06,0.000,0.0,0.0,0.0
23/05/2023,02:42:06,0.001,0.0,0.0,0.0
23/05/2023,02:43:05,0.000,0.0,0.0,0.0
23/05/2023,02:44:05,0.001,0.0,0.0,0.0
23/05/2023,02:45:05,0.000,0.0,0.0,0.0
23/05/2023,02:46:06,0.001,0.0,0.0,0.0
23/05/2023,02:47:05,0.001,0.0,0.0,0.0
23/05/2023,02:48:06,0.001,0.0,0.0,0.0
23/05/2023,02:49:05,0.001,0.0,0.0,0.0
23/05/2023,02:50:06,-0.000,0.0,0.0,0.0
23/05/2023,02:51:06,0.001,0.0,0.0,0.0
23/05/2023,02:52:06,0.000,0.0,0.0,0.0
23/05/2023,02:53:05,0.001,0.0,0.0,0.0
23/05/2023,02:54:06,-0.000,0.0,0.0,0.0
23/05/2023,02:55:05,0.001,0.0,0.0,0.0
23/05/2023,02:56:06,0.002,0.0,0.0,0.0
23/05/2023,02:57:05,0.001,0.0,0.0,0.0
23/05/2023,02:58:06,0.001,0.0,0.0,0.0
23/05/2023,02:59:06,-0.000,0.0,0.0,0.0
23/05/2023,03:00:06,0.001,0.0,0.0,0.0
23/05/2023,03:01:06,0.001,0.0,0.0,0.0
23/05/2023,03:02:05,0.001,0.0,0.0,0.0
23/05/2023,03:03:05,0.000,0.0,0.0,0.0
23/05/2023,03:04:05,0.000,0.0,0.0,0.0
23/05/2023,03:05:05,0.002,0.0,0.0,0.0
23/05/2023,03:06:06,0.002,0.0,0.0,0.0
23/05/2023,03:07:05,0.001,0.0,0.0,0.0
23/05/2023,03:08:05,0.001,0.0,0.0,0.0
23/05/2023,03:09:06,0.002,0.0,0.0,0.0
23/05/2023,03:10:06,-0.001,0.0,0.0,0.0
23/05/2023,03:11:05,0.001,0.0,0.0,0.0
23/05/2023,03:12:06,0.001,0.0,0.0,0.0
23/05/2023,03:13:06,0.001,0.0,0.0,0.0
23/05/2023,03:14:05,0.000,0.0,0.0,0.0
23/05/2023,03:15:05,0.000,0.0,0.0,0.0
23/05/2023,03:16:06,0.001,0.0,0.0,0.0
23/05/2023,03:17:06,0.001,0.0,0.0,0.0
23/05/2023,03:18:06,-0.000,0.0,0.0,0.0
23/05/2023,03:19:06,0.002,0.0,0.0,0.0
23/05/2023,03:20:06,0.001,0.0,0.0,0.0
23/05/2023,03:21:06,0.001,0.0,0.0,0.0
23/05/2023,03:22:06,0.001,0.0,0.0,0.0
23/05/2023,03:23:06,0.001,0.0,0.0,0.0
23/05/2023,03:24:05,0.001,0.0,0.0,0.0
23/05/2023,03:25:06,0.001,0.0,0.0,0.0
23/05/2023,03:26:05,0.000,0.0,0.0,0.0
23/05/2023,03:27:06,0.001,0.0,0.0,0.0
23/05/2023,03:28:05,0.001,0.0,0.0,0.0
23/05/2023,03:29:06,0.002,0.0,0.0,0.0
23/05/2023,03:30:06,0.002,0.0,0.0,0.0
23/05/2023,03:31:06,0.001,0.0,0.0,0.0
23/05/2023,03:32:06,0.001,0.0,0.0,0.0
23/05/2023,03:33:05,0.000,0.0,0.0,0.0
23/05/2023,03:34:06,0.001,0.0,0.0,0.0
23/05/2023,03:35:06,0.001,0.0,0.0,0.0
23/05/2023,03:36:06,0.001,0.0,0.0,0.0
23/05/2023,03:37:05,0.001,0.0,0.0,0.0
23/05/2023,03:38:05,0.001,0.0,0.0,0.0
23/05/2023,03:39:06,0.001,0.0,0.0,0.0
23/05/2023,03:40:05,0.000,0.0,0.0,0.0
23/05/2023,03:41:06,0.001,0.0,0.0,0.0
23/05/2023,03:42:06,0.001,0.0,0.0,0.0
23/05/2023,03:43:06,0.001,0.0,0.0,0.0
23/05/2023,03:44:06,0.001,0.0,0.0,0.0
23/05/2023,03:45:05,0.001,0.0,0.0,0.0
23/05/2023,03:46:06,0.001,0.0,0.0,0.0
23/05/2023,03:47:06,0.001,0.0,0.0,0.0
23/05/2023,03:48:06,0.002,0.0,0.0,0.0
23/05/2023,03:49:05,0.001,0.0,0.0,0.0
23/05/2023,03:50:05,0.001,0.0,0.0,0.0
23/05/2023,03:51:06,0.002,0.0,0.0,0.0
23/05/2023,03:52:06,0.002,0.0,0.0,0.0
23/05/2023,03:53:05,0.002,0.0,0.0,0.0
23/05/2023,03:54:06,0.002,0.0,0.0,0.0
23/05/2023,03:55:06,0.002,0.0,0.0,0.0
23/05/2023,03:56:06,0.002,0.0,0.0,0.0
23/05/2023,03:57:06,0.002,0.0,0.0,0.0
23/05/2023,03:58:06,0.002,0.0,0.0,0.0
23/05/2023,03:59:06,0.002,0.0,0.0,0.0
23/05/2023,04:00:07,0.002,0.0,0.0,0.0
23/05/2023,04:01:06,0.002,0.0,0.0,0.0
23/05/2023,04:02:06,0.002,0.0,0.0,0.0
23/05/2023,04:03:06,0.003,0.0,0.0,0.0
23/05/2023,04:04:06,0.004,0.0,0.0,0.0
23/05/2023,04:05:06,0.004,0.0,0.0,0.0
23/05/2023,04:06:06,0.003,0.0,0.0,0.0
23/05/2023,04:07:06,0.003,0.0,0.0,0.0
23/05/2023,04:08:06,0.003,0.0,0.0,0.0
23/05/2023,04:09:06,0.004,0.0,0.0,0.0
23/05/2023,04:10:05,0.004,0.0,0.0,0.0
23/05/2023,04:11:06,0.004,0.0,0.0,0.0
23/05/2023,04:12:06,0.004,0.0,0.0,0.0
23/05/2023,04:13:06,0.004,0.0,0.0,0.0
23/05/2023,04:14:06,0.004,0.0,0.0,0.0
23/05/2023,04:15:06,0.005,0.0,0.0,0.0
23/05/2023,04:16:06,0.005,0.0,0.0,0.0
23/05/2023,04:17:06,0.006,0.0,0.0,0.0
23/05/2023,04:18:05,0.004,0.0,0.0,0.0
23/05/2023,04:19:06,0.006,0.0,0.0,0.0
23/05/2023,04:20:06,0.006,0.0,0.0,0.0
23/05/2023,04:21:06,0.006,0.0,0.0,0.0
23/05/2023,04:22:05,0.006,0.0,0.0,0.0
23/05/2023,04:23:06,0.006,0.0,0.0,0.0
23/05/2023,04:24:06,0.007,0.0,0.0,0.0
23/05/2023,04:25:06,0.007,0.0,0.001,0.001
23/05/2023,04:26:06,0.007,0.0,0.001,0.0
23/05/2023,04:27:05,0.007,0.0,0.001,0.0
23/05/2023,04:28:06,0.007,0.0,0.001,0.0
23/05/2023,04:29:06,0.008,0.0,0.001,0.0
23/05/2023,04:30:06,0.008,0.0,0.001,0.0
23/05/2023,04:31:06,0.009,0.0,0.001,0.0
23/05/2023,04:32:06,0.010,0.0,0.001,0.0
23/05/2023,04:33:06,0.010,0.0,0.002,0.001
23/05/2023,04:34:06,0.009,0.0,0.002,0.0
23/05/2023,04:35:06,0.010,0.0,0.002,0.0
23/05/2023,04:36:06,0.010,0.0,0.002,0.0
23/05/2023,04:37:05,0.012,0.0,0.002,0.0
23/05/2023,04:38:06,0.011,0.0,0.002,0.0
23/05/2023,04:39:05,0.012,0.0,0.003,0.001
23/05/2023,04:40:05,0.014,0.0,0.003,0.0
23/05/2023,04:41:06,0.013,0.0,0.003,0.0
23/05/2023,04:42:06,0.013,0.0,0.003,0.0
23/05/2023,04:43:05,0.013,0.0,0.003,0.0
23/05/2023,04:44:05,0.014,0.0,0.004,0.001
23/05/2023,04:45:06,0.014,0.0,0.004,0.0
23/05/2023,04:46:06,0.014,0.0,0.004,0.0
23/05/2023,04:47:06,0.015,0.0,0.004,0.0
23/05/2023,04:48:06,0.016,0.0,0.005,0.001
23/05/2023,04:49:06,0.016,0.0,0.005,0.0
23/05/2023,04:50:06,0.017,0.0,0.005,0.0
23/05/2023,04:51:06,0.017,0.0,0.006,0.001
23/05/2023,04:52:06,0.018,0.0,0.006,0.0
23/05/2023,04:53:05,0.019,0.0,0.006,0.0
23/05/2023,04:54:06,0.020,0.0,0.006,0.0
23/05/2023,04:55:06,0.019,0.0,0.007,0.001
23/05/2023,04:56:05,0.020,0.0,0.007,0.0
23/05/2023,04:57:05,0.022,0.0,0.007,0.0
23/05/2023,04:58:06,0.022,0.0,0.008,0.001
23/05/2023,04:59:06,0.022,0.0,0.008,0.0
23/05/2023,05:00:06,0.023,0.0,0.009,0.001
23/05/2023,05:01:06,0.023,0.0,0.009,0.0
23/05/2023,05:02:05,0.025,0.0,0.009,0.0
23/05/2023,05:03:06,0.025,0.0,0.01,0.001
23/05/2023,05:04:06,0.025,0.0,0.01,0.0
23/05/2023,05:05:06,0.026,0.0,0.011,0.001
23/05/2023,05:06:06,0.027,0.0,0.011,0.0
23/05/2023,05:07:06,0.027,0.0,0.011,0.0
23/05/2023,05:08:06,0.028,0.0,0.012,0.001
23/05/2023,05:09:05,0.028,0.0,0.012,0.0
23/05/2023,05:10:06,0.029,0.0,0.013,0.001
23/05/2023,05:11:06,0.030,0.0,0.013,0.0
23/05/2023,05:12:06,0.030,0.0,0.014,0.001
23/05/2023,05:13:06,0.031,0.0,0.014,0.0
23/05/2023,05:14:06,0.033,0.0,0.015,0.001
23/05/2023,05:15:06,0.034,0.0,0.015,0.0
23/05/2023,05:16:05,0.034,0.0,0.016,0.001
23/05/2023,05:17:28,0.036,0.0,0.017,0.001
23/05/2023,05:19:06,0.038,0.0,0.018,0.001
23/05/2023,05:20:06,0.039,0.0,0.019,0.001
23/05/2023,05:21:06,0.040,0.0,0.019,0.0
23/05/2023,05:22:06,0.040,0.0,0.02,0.001
23/05/2023,05:23:06,0.042,0.0,0.021,0.001
23/05/2023,05:24:06,0.043,0.0,0.021,0.0
23/05/2023,05:25:06,0.043,0.0,0.022,0.001
23/05/2023,05:26:06,0.044,0.0,0.023,0.001
23/05/2023,05:27:06,0.045,0.0,0.023,0.0
23/05/2023,05:28:06,0.046,0.0,0.024,0.001
23/05/2023,05:29:06,0.048,0.0,0.025,0.001
23/05/2023,05:30:06,0.049,0.0,0.026,0.001
23/05/2023,05:31:06,0.051,0.0,0.027,0.001
23/05/2023,05:32:06,0.051,0.0,0.027,0.0
23/05/2023,05:33:06,0.052,0.0,0.028,0.001
23/05/2023,05:34:06,0.054,0.0,0.029,0.001
23/05/2023,05:35:05,0.055,0.0,0.03,0.001
23/05/2023,05:36:06,0.056,0.0,0.031,0.001
23/05/2023,05:37:06,0.058,0.0,0.032,0.001
23/05/2023,05:38:06,0.059,0.0,0.033,0.001
23/05/2023,05:39:06,0.061,0.0,0.034,0.001
23/05/2023,05:40:06,0.063,0.0,0.035,0.001
23/05/2023,05:41:06,0.065,0.0,0.036,0.001
23/05/2023,05:42:06,0.067,0.0,0.037,0.001
23/05/2023,05:43:06,0.069,0.0,0.038,0.001
23/05/2023,05:44:06,0.071,0.0,0.039,0.001
23/05/2023,05:45:06,0.072,0.0,0.041,0.002
23/05/2023,05:46:06,0.075,0.0,0.042,0.001
23/05/2023,05:47:06,0.076,0.0,0.043,0.001
23/05/2023,05:48:06,0.079,0.0,0.044,0.001
23/05/2023,05:49:06,0.080,0.0,0.046,0.002
23/05/2023,05:50:06,0.082,0.0,0.047,0.001
23/05/2023,05:51:06,0.084,0.0,0.048,0.001
23/05/2023,05:52:06,0.086,0.0,0.05,0.002
23/05/2023,05:53:06,0.089,0.0,0.051,0.001
23/05/2023,05:54:06,0.089,0.0,0.053,0.002
23/05/2023,05:55:06,0.090,0.0,0.054,0.001
23/05/2023,05:56:06,0.090,0.0,0.056,0.002
23/05/2023,05:57:07,0.091,0.0,0.057,0.001
23/05/2023,05:58:06,0.092,0.0,0.059,0.002
23/05/2023,05:59:06,0.092,0.0,0.06,0.001
23/05/2023,06:00:06,0.092,0.0,0.062,0.002
23/05/2023,06:01:06,0.093,0.0,0.063,0.001
23/05/2023,06:02:06,0.094,0.0,0.065,0.002
23/05/2023,06:03:06,0.095,0.0,0.067,0.002
23/05/2023,06:04:06,0.096,0.0,0.068,0.001
23/05/2023,06:05:06,0.097,0.0,0.07,0.002
23/05/2023,06:06:06,0.099,0.0,0.071,0.001
23/05/2023,06:07:06,0.101,0.0,0.073,0.002
23/05/2023,06:08:06,0.103,0.0,0.075,0.002
23/05/2023,06:09:07,0.106,0.0,0.077,0.002
23/05/2023,06:10:06,0.108,0.0,0.078,0.001
23/05/2023,06:11:06,0.111,0.0,0.08,0.002
23/05/2023,06:12:06,0.116,0.0,0.082,0.002
23/05/2023,06:13:07,0.118,0.0,0.084,0.002
23/05/2023,06:14:06,0.121,0.0,0.086,0.002
23/05/2023,06:15:06,0.124,0.0,0.088,0.002
23/05/2023,06:16:06,0.127,0.0,0.09,0.002
23/05/2023,06:17:06,0.131,0.0,0.092,0.002
23/05/2023,06:18:06,0.134,0.0,0.095,0.003
23/05/2023,06:19:06,0.137,0.0,0.097,0.002
23/05/2023,06:20:06,0.141,0.0,0.099,0.002
23/05/2023,06:21:06,0.146,0.0,0.101,0.002
23/05/2023,06:22:06,0.153,0.0,0.104,0.003
23/05/2023,06:23:06,0.157,0.0,0.107,0.003
23/05/2023,06:24:06,0.158,0.0,0.109,0.002
23/05/2023,06:25:06,0.157,0.0,0.112,0.003
23/05/2023,06:26:06,0.161,0.0,0.114,0.002
23/05/2023,06:27:06,0.163,0.0,0.117,0.003
23/05/2023,06:28:07,0.164,0.0,0.12,0.003
23/05/2023,06:29:06,0.170,0.0,0.123,0.003
23/05/2023,06:30:06,0.171,0.0,0.125,0.002
23/05/2023,06:31:06,0.174,0.0,0.128,0.003
23/05/2023,06:32:05,0.177,0.0,0.131,0.003
23/05/2023,06:33:06,0.178,0.0,0.134,0.003
23/05/2023,06:34:06,0.177,0.0,0.137,0.003
23/05/2023,06:35:06,0.183,0.0,0.14,0.003
23/05/2023,06:36:06,0.187,0.0,0.143,0.003
23/05/2023,06:37:28,0.192,0.0,0.148,0.005
23/05/2023,06:39:07,0.201,0.0,0.153,0.005
23/05/2023,06:40:06,0.206,0.0,0.156,0.003
23/05/2023,06:41:07,0.210,0.0,0.16,0.004
23/05/2023,06:42:06,0.215,0.0,0.163,0.003
23/05/2023,06:43:06,0.217,0.0,0.167,0.004
23/05/2023,06:44:06,0.217,0.0,0.171,0.004
23/05/2023,06:45:05,0.214,0.0,0.174,0.003
23/05/2023,06:46:06,0.212,0.0,0.178,0.004
23/05/2023,06:47:06,0.211,0.0,0.181,0.003
23/05/2023,06:48:06,0.210,0.0,0.185,0.004
23/05/2023,06:49:06,0.208,0.0,0.188,0.003
23/05/2023,06:50:06,0.210,0.0,0.192,0.004
23/05/2023,06:51:06,0.211,0.0,0.195,0.003
23/05/2023,06:52:06,0.212,0.0,0.199,0.004
23/05/2023,06:53:06,0.215,0.0,0.202,0.003
23/05/2023,06:55:07,0.222,1.0,0.21,0.008
23/05/2023,06:57:07,0.228,1.0,0.217,0.007
23/05/2023,06:59:07,0.242,1.0,0.225,0.008
23/05/2023,07:01:07,0.261,1.0,0.233,0.008
23/05/2023,07:03:07,0.267,1.0,0.242,0.009
23/05/2023,07:05:07,0.276,1.0,0.251,0.009
23/05/2023,07:07:06,0.285,1.0,0.261,0.01
23/05/2023,07:09:06,0.293,1.0,0.27,0.009
23/05/2023,07:12:07,0.299,1.0,0.285,0.015
23/05/2023,07:14:07,0.300,1.0,0.295,0.01
23/05/2023,07:16:06,0.309,1.0,0.305,0.01
23/05/2023,07:18:07,0.322,1.0,0.316,0.011
23/05/2023,07:20:07,0.329,1.0,0.326,0.01
23/05/2023,07:22:07,0.337,1.0,0.338,0.012
23/05/2023,07:24:07,0.343,1.0,0.349,0.011
23/05/2023,07:26:07,0.342,1.0,0.361,0.012
23/05/2023,07:28:06,0.343,1.0,0.372,0.011
23/05/2023,07:31:07,0.349,1.0,0.389,0.017
23/05/2023,07:33:07,0.350,1.0,0.401,0.012
23/05/2023,07:35:07,0.352,1.0,0.412,0.011
23/05/2023,07:37:07,0.358,1.0,0.424,0.012
23/05/2023,07:39:07,0.370,1.0,0.436,0.012
23/05/2023,07:41:07,0.376,1.0,0.449,0.013
23/05/2023,07:43:07,0.386,1.0,0.462,0.013
23/05/2023,07:45:07,0.387,1.0,0.474,0.012
23/05/2023,07:47:07,0.392,1.0,0.487,0.013
23/05/2023,07:49:07,0.400,1.0,0.501,0.014
23/05/2023,07:51:07,0.412,1.0,0.514,0.013
23/05/2023,07:53:07,0.430,1.0,0.528,0.014
23/05/2023,07:55:06,0.452,1.0,0.543,0.015
23/05/2023,07:57:07,0.470,1.0,0.558,0.015
23/05/2023,07:59:07,0.484,1.0,0.574,0.016
23/05/2023,08:01:07,0.500,1.0,0.591,0.017
23/05/2023,08:03:07,0.519,1.0,0.608,0.017
23/05/2023,08:05:07,0.525,1.0,0.625,0.017
23/05/2023,08:07:07,0.513,1.0,0.643,0.018
23/05/2023,08:09:07,0.512,1.0,0.66,0.017
23/05/2023,08:11:06,0.503,1.0,0.676,0.016
23/05/2023,08:13:07,0.500,1.0,0.693,0.017
23/05/2023,08:15:07,0.502,1.0,0.71,0.017
23/05/2023,08:17:07,0.516,1.0,0.727,0.017
23/05/2023,08:19:07,0.545,1.0,0.744,0.017
23/05/2023,08:21:07,0.571,1.0,0.763,0.019
23/05/2023,11:27:57,1.040,2.0,4.465,3.702
23/05/2023,11:41:55,1.104,3.0,4.707,0.242
23/05/2023,13:28:07,1.734,4.0,7.225,2.518
23/05/2023,14:50:28,0.784,2.0,9.064,1.839
23/05/2023,15:08:50,1.006,2.0,9.324,0.26
23/05/2023,15:50:44,0.530,1.0,9.821,0.497
23/05/2023,16:13:54,0.437,1.0,10.005,0.184
23/05/2023,16:17:09,0.425,1.0,10.028,0.023
23/05/2023,16:18:07,0.424,1.0,10.035,0.007
23/05/2023,16:19:06,0.420,1.0,10.042,0.007
23/05/2023,16:20:08,0.415,1.0,10.049,0.007
23/05/2023,16:21:07,0.412,1.0,10.056,0.007
23/05/2023,16:22:08,0.412,1.0,10.063,0.007
23/05/2023,16:23:08,0.465,1.0,10.07,0.007
23/05/2023,16:24:07,0.457,1.0,10.078,0.008
23/05/2023,16:25:07,0.453,1.0,10.085,0.007
23/05/2023,16:26:07,0.441,1.0,10.093,0.008
23/05/2023,16:27:07,0.448,1.0,10.1,0.007
23/05/2023,16:28:07,0.401,1.0,10.107,0.007
23/05/2023,16:29:07,0.410,1.0,10.114,0.007
23/05/2023,16:30:07,0.391,1.0,10.121,0.007
23/05/2023,16:31:07,0.387,1.0,10.128,0.007
23/05/2023,16:32:06,0.385,1.0,10.134,0.006
23/05/2023,16:33:07,0.379,1.0,10.14,0.006
23/05/2023,16:34:07,0.394,1.0,10.147,0.007
23/05/2023,16:35:08,0.426,1.0,10.154,0.007
23/05/2023,16:36:07,0.418,1.0,10.161,0.007
23/05/2023,16:37:07,0.417,1.0,10.168,0.007
23/05/2023,16:38:08,0.414,1.0,10.175,0.007
23/05/2023,16:39:07,0.404,1.0,10.181,0.006
23/05/2023,16:40:07,0.396,1.0,10.188,0.007
23/05/2023,16:41:07,0.381,1.0,10.194,0.006
23/05/2023,16:42:07,0.393,1.0,10.201,0.007
23/05/2023,16:43:07,0.393,1.0,10.208,0.007
23/05/2023,16:44:07,0.394,1.0,10.214,0.006
23/05/2023,16:45:07,0.390,1.0,10.221,0.007
23/05/2023,16:46:07,0.392,1.0,10.227,0.006
23/05/2023,16:47:07,0.391,1.0,10.233,0.006
23/05/2023,16:48:07,0.388,1.0,10.24,0.007
23/05/2023,16:49:07,0.381,1.0,10.247,0.007
23/05/2023,16:50:07,0.377,1.0,10.253,0.006
23/05/2023,16:51:07,0.373,1.0,10.259,0.006
23/05/2023,16:52:07,0.373,1.0,10.265,0.006
23/05/2023,16:53:07,0.369,1.0,10.271,0.006
23/05/2023,16:54:07,0.369,1.0,10.277,0.006
23/05/2023,16:55:08,0.356,1.0,10.284,0.007
23/05/2023,16:56:07,0.346,1.0,10.289,0.005
23/05/2023,16:57:07,0.331,1.0,10.295,0.006
23/05/2023,16:58:07,0.320,1.0,10.3,0.005
23/05/2023,16:59:07,0.312,1.0,10.306,0.006
23/05/2023,17:00:07,0.301,1.0,10.311,0.005
23/05/2023,17:01:07,0.299,1.0,10.316,0.005
23/05/2023,17:02:07,0.297,1.0,10.321,0.005
23/05/2023,17:03:07,0.292,1.0,10.326,0.005
23/05/2023,17:04:07,0.295,1.0,10.33,0.004
23/05/2023,17:05:07,0.294,1.0,10.336,0.006
23/05/2023,17:06:07,0.297,1.0,10.34,0.004
23/05/2023,17:07:07,0.299,1.0,10.345,0.005
23/05/2023,17:08:07,0.295,1.0,10.35,0.005
23/05/2023,17:09:07,0.284,1.0,10.355,0.005
23/05/2023,17:10:07,0.280,1.0,10.36,0.005
23/05/2023,17:11:07,0.275,1.0,10.365,0.005
23/05/2023,17:12:07,0.268,1.0,10.369,0.004
23/05/2023,17:13:07,0.259,1.0,10.373,0.004
23/05/2023,17:14:07,0.249,1.0,10.378,0.005
23/05/2023,17:15:07,0.243,1.0,10.382,0.004
23/05/2023,17:16:07,0.239,1.0,10.386,0.004
23/05/2023,17:17:07,0.233,1.0,10.39,0.004
23/05/2023,17:18:07,0.231,1.0,10.394,0.004
23/05/2023,17:19:07,0.228,1.0,10.397,0.003
23/05/2023,17:20:07,0.223,1.0,10.401,0.004
23/05/2023,17:21:07,0.220,1.0,10.405,0.004
23/05/2023,17:22:07,0.219,1.0,10.408,0.003
23/05/2023,17:23:07,0.213,0.0,10.412,0.004
23/05/2023,17:24:07,0.208,0.0,10.416,0.004
23/05/2023,17:25:07,0.204,0.0,10.419,0.003
23/05/2023,17:26:07,0.199,0.0,10.422,0.003
23/05/2023,17:27:07,0.196,0.0,10.426,0.004
23/05/2023,17:28:07,0.193,0.0,10.429,0.003
23/05/2023,17:29:08,0.192,0.0,10.432,0.003
23/05/2023,17:30:07,0.185,0.0,10.435,0.003
23/05/2023,17:31:07,0.180,0.0,10.438,0.003
23/05/2023,17:32:07,0.177,0.0,10.441,0.003
23/05/2023,17:33:07,0.176,0.0,10.444,0.003
23/05/2023,17:34:07,0.175,0.0,10.447,0.003
23/05/2023,17:35:08,0.175,0.0,10.45,0.003
23/05/2023,17:36:06,0.173,0.0,10.453,0.003
23/05/2023,17:37:07,0.170,0.0,10.456,0.003
23/05/2023,17:38:07,0.167,0.0,10.459,0.003
23/05/2023,17:39:07,0.164,0.0,10.461,0.002
23/05/2023,17:40:07,0.164,0.0,10.464,0.003
23/05/2023,17:41:07,0.160,0.0,10.467,0.003
23/05/2023,17:42:07,0.158,0.0,10.469,0.002
23/05/2023,17:43:07,0.154,0.0,10.472,0.003
23/05/2023,17:44:07,0.152,0.0,10.475,0.003
23/05/2023,17:45:07,0.150,0.0,10.477,0.002
23/05/2023,17:46:07,0.146,0.0,10.48,0.003
23/05/2023,17:47:07,0.142,0.0,10.482,0.002
23/05/2023,17:48:07,0.140,0.0,10.484,0.002
23/05/2023,17:49:08,0.137,0.0,10.487,0.003
23/05/2023,17:50:07,0.135,0.0,10.489,0.002
23/05/2023,17:51:07,0.130,0.0,10.491,0.002
23/05/2023,17:52:08,0.129,0.0,10.493,0.002
23/05/2023,17:53:07,0.126,0.0,10.495,0.002
23/05/2023,17:54:07,0.124,0.0,10.497,0.002
23/05/2023,17:55:07,0.121,0.0,10.5,0.003
23/05/2023,17:56:07,0.120,0.0,10.502,0.002
23/05/2023,17:57:07,0.119,0.0,10.504,0.002
23/05/2023,17:58:07,0.116,0.0,10.505,0.001
23/05/2023,17:59:07,0.113,0.0,10.507,0.002
23/05/2023,18:00:08,0.111,0.0,10.509,0.002
23/05/2023,18:01:07,0.109,0.0,10.511,0.002
23/05/2023,18:02:08,0.107,0.0,10.513,0.002
23/05/2023,18:03:08,0.105,0.0,10.515,0.002
23/05/2023,18:04:07,0.103,0.0,10.516,0.001
23/05/2023,18:05:07,0.099,0.0,10.518,0.002
23/05/2023,18:06:07,0.097,0.0,10.52,0.002
23/05/2023,18:07:08,0.096,0.0,10.521,0.001
23/05/2023,18:08:07,0.093,0.0,10.523,0.002
23/05/2023,18:09:07,0.091,0.0,10.524,0.001
23/05/2023,18:10:07,0.088,0.0,10.526,0.002
23/05/2023,18:11:07,0.088,0.0,10.527,0.001
23/05/2023,18:12:07,0.086,0.0,10.529,0.002
23/05/2023,18:13:07,0.085,0.0,10.53,0.001
23/05/2023,18:14:08,0.082,0.0,10.532,0.002
23/05/2023,18:15:07,0.080,0.0,10.533,0.001
23/05/2023,18:16:07,0.080,0.0,10.534,0.001
23/05/2023,18:17:08,0.077,0.0,10.536,0.002
23/05/2023,18:18:07,0.076,0.0,10.537,0.001
23/05/2023,18:19:07,0.075,0.0,10.538,0.001
23/05/2023,18:20:07,0.073,0.0,10.539,0.001
23/05/2023,18:21:08,0.071,0.0,10.541,0.002
23/05/2023,18:22:07,0.070,0.0,10.542,0.001
23/05/2023,18:23:07,0.069,0.0,10.543,0.001
23/05/2023,18:24:07,0.067,0.0,10.544,0.001
23/05/2023,18:25:07,0.066,0.0,10.545,0.001
23/05/2023,18:26:07,0.063,0.0,10.546,0.001
23/05/2023,18:27:07,0.061,0.0,10.547,0.001
23/05/2023,18:28:07,0.060,0.0,10.548,0.001
23/05/2023,18:29:07,0.057,0.0,10.549,0.001
23/05/2023,18:30:07,0.055,0.0,10.55,0.001